Location: LDNL
(36.4545°S, 141.6685°E)
Time: 02:13:36
(UTC+10:00)

Envisat - Pass Details

Date: 08 March 2024
Orbit: 762 x 764 km, 98.3° (Epoch: 15 April)

Event Time Altitude Azimuth Distance (km) Brightness Sun altitude
Exits shadow 04:11:02 15° 188° (S) 1,981 5.4 -36.3°
Drops below altitude 10° 04:11:55 10° 189° (S) 2,328 5.8 -36.2°
Sets 04:14:14 0° 190° (S) 3,262 6.6 -35.8°
